#timestamp,LO_Frequency,Hit,StdDev 
1520744415.4,286047000.4,N
1520744435.2,286047002.8,N
1520744455.1,286047000.2,N
1520744456.0,286047000.2,N
1520744475.8,286047000.3,N
1520744495.6,286047000.1,N
1520744515.5,286046999.7,N
1520744535.3,286047000.0,N
1520744555.2,286047000.2,N
1520744575.9,286047000.9,N
1520744595.7,286047000.9,N
1520744615.6,286047000.6,N
1520744635.4,286046998.1,N
1520744655.3,286047000.0,N
1520744675.1,286047000.5,N
1520744676.0,286047000.5,N
1520744695.8,286046999.9,N
1520744715.7,286047000.0,N
1520744735.5,286047000.7,N
1520744755.4,286047000.9,N
1520744775.2,286046998.5,N
1520744795.0,286046998.3,N
1520744795.9,286046998.3,N
1520744815.8,286047000.5,N
1520744835.6,286046999.9,N
1520744855.5,286046998.1,N
1520744875.3,286046998.3,N
1520744895.1,286046998.3,N
1520744915.9,286046999.3,N
1520744935.7,286046998.1,N
1520744955.6,286047000.9,N
1520744975.4,286047000.8,N
1520744995.2,286047000.7,N
1520745015.1,286047000.9,N
1520745016.0,286047000.9,N
1520745035.8,286046999.8,N
1520745055.6,286047002.3,N
1520745075.5,286047002.4,N
1520745095.3,286047002.3,N
1520745115.2,286047002.5,N
1520745135.9,286047000.9,N
1520745155.7,286047000.4,N
1520745175.6,286047000.7,N
1520745195.4,286046998.6,N
1520745215.2,286046998.4,N
1520745235.1,286046998.2,N
1520745236.0,286046998.2,N
1520745255.8,286047001.1,N
1520745275.7,286047000.7,N
1520745295.5,286046998.4,N
1520745315.3,286046999.0,N
1520745335.2,286046998.3,N
1520745355.0,286046998.9,N
1520745355.9,286046998.9,N
1520745375.8,286046999.0,N
1520745395.6,286046998.7,N
1520745415.4,286047001.2,N
1520745435.3,286047000.6,N
1520745455.1,286047000.9,N
1520745475.9,286047000.7,N
1520745495.7,286046999.8,N
1520745515.5,286047000.5,N
1520745535.4,286047000.7,N
1520745555.2,286047000.7,N
1520745575.0,286047001.2,N
1520745576.0,286047001.2,N
1520745595.8,286047000.4,N
1520745615.6,286047001.0,N
1520745635.5,286047000.8,N
1520745655.3,286047001.1,N
1520745675.1,286047000.0,N
1520745695.9,286047000.6,N
1520745715.7,286047000.4,N
1520745735.6,286046998.3,N
1520745755.4,286046998.4,N
1520745775.2,286047000.9,N
1520745795.1,286047000.8,N
1520745796.0,286047000.8,N
1520745815.8,286047000.5,N
1520745835.6,286047000.6,N
1520745855.5,286047000.9,N
1520745875.3,286046999.9,N
1520745895.2,286046999.9,N
1520745915.9,286047000.2,N
1520745935.7,286047000.0,N
1520745955.6,286047000.6,N
1520745975.4,286047000.3,N
1520745995.2,286047000.6,N
1520746015.1,286047001.1,N
1520746016.0,286047001.1,N
1520746035.8,286047000.8,N
1520746055.7,286046998.3,N
1520746075.5,286047001.2,N
1520746095.3,286046998.9,N
1520746115.2,286046998.6,N
1520746135.0,286047000.5,N
1520746135.9,286047000.5,N
1520746155.8,286047001.0,N
1520746175.6,286047001.2,N
1520746195.4,286046998.2,N
1520746215.3,286046998.8,N
1520746235.1,286046999.0,N
1520746255.9,286046998.2,N
1520746275.7,286046998.7,N
1520746295.5,286047001.0,N
1520746315.4,286047001.1,N
1520746335.2,286046998.2,N
1520746355.0,286047001.0,N
1520746356.0,286047001.0,N
1520746375.8,286047002.8,N
1520746395.6,286047000.5,N
1520746445.5,286046998.1,E
1520746455.4,286046999.9,N
1520746475.3,286046999.7,P
1520746495.1,286047002.6,P
1520746515.8,286046999.8,N
1520746535.7,286046999.8,N
1520746555.5,286047002.7,N
1520746575.4,286047004.4,Y
1520746595.2,286047002.5,P
1520746615.0,286047001.6,N
1520746615.9,286047001.6,N
1520746635.8,286047001.6,N
1520746655.6,286047004.4,Y
1520746675.4,286047002.8,P
1520746695.3,286047001.0,N
1520746715.1,286047001.1,N
1520746735.9,286046998.5,N
1520746755.7,286046998.8,N
1520746775.5,286046999.0,N
1520746795.4,286046999.3,N
1520746815.2,286046998.9,N
1520746835.1,286046998.2,N
1520746836.0,286046998.2,N
1520746855.8,286046999.3,N
1520746875.6,286046998.4,N
1520746895.5,286046998.4,N
1520746915.3,286046997.1,N
1520746935.1,286046996.6,N
1520746955.9,286046997.7,N
1520746975.7,286046995.0,Y
1520746995.6,286046997.4,P
1520747015.4,286046996.7,P
1520747035.2,286046997.3,N
1520747055.1,286046997.6,N
1520747056.0,286046997.6,Y
1520747075.8,286046999.2,P
1520747095.7,286046997.1,P
1520747115.5,286046996.8,P
1520747135.3,286046996.8,Y
1520747155.2,286046998.5,P
1520747175.0,286046999.3,N
1520747175.9,286046999.3,N
1520747195.8,286046998.7,N
1520747215.6,286046998.8,N
1520747235.4,286046996.5,Y
1520747255.3,286046999.0,P
1520747275.1,286047000.8,P
1520747295.8,286047001.2,N
1520747315.7,286046998.7,N
1520747335.5,286046998.4,N
1520747355.4,286046998.4,N
1520747375.2,286046999.3,N
1520747395.0,286046996.5,Y
1520747395.9,286046996.5,P
1520747415.8,286046996.6,N
1520747435.6,286046996.7,N
1520747455.5,286046996.8,N
1520747475.3,286046997.0,N
1520747495.1,286046997.1,N
1520747515.9,286046996.8,Y
1520747535.7,286046998.2,P
1520747555.5,286046996.9,P
1520747575.4,286046995.0,P
1520747595.2,286046998.0,N
1520747615.0,286046997.8,N
1520747616.0,286046997.8,N
1520747635.8,286046997.7,N
1520747655.6,286046999.5,N
1520747675.5,286046997.3,N
1520747695.3,286046997.9,N
1520747715.1,286046997.3,N
1520747735.9,286046997.0,Y
1520747755.7,286047000.1,P
1520747775.6,286046998.1,N
1520747795.4,286047000.6,N
1520747815.2,286046998.2,N
1520747835.1,286047000.3,N
1520747836.0,286047000.3,N
1520747855.8,286046999.9,N
1520747875.6,286047000.5,N
1520747895.5,286047002.4,N
1520747915.3,286047001.6,N
1520747935.2,286047002.1,N
1520747955.9,286047000.9,N
1520747975.7,286046999.7,N
1520747995.6,286047000.1,N
